CW5586 Lerum SE current weather conditions

sailwx.info

Wind from 180 at 7 knots gusting 22

Air temperature 7.8° C
Dewpoint 7.3° C

Last reported at 2019-Dec-06 07:41 UTC.
Time now 2019-Dec-06 09:00 UTC

Location: N 57°47' E 012°15'.
View on Google Maps.

See reports from other nearby stations

  
Tides and Currents Weather Stations Pressure Air Temp Water Temp Dewpoint Dewpoint Depression Visibility Wind Speed Wind Dir Waves Ship Positions
date/time (UTC)wind fromknots sea level pressurealtimeterstation pressurevisibilityair tempwater tempwave heightnotes
2019-Dec-06 07:41 180 7 gusting 22 7.8
2019-Dec-06 07:11 220 7 gusting 13 8.3
2019-Dec-06 07:06 205 5 gusting 13 8.3
2019-Dec-06 07:01 247 7 gusting 20 8.3
2019-Dec-06 05:41 199 13 gusting 20 7.8
2019-Dec-06 05:16 203 12 gusting 26 7.8
2019-Dec-06 05:01 204 13 gusting 30 7.8
2019-Dec-06 04:36 190 13 gusting 26 7.8
2019-Dec-06 04:16 206 13 gusting 24 7.2
2019-Dec-06 03:46 193 13 gusting 21 7.2
2019-Dec-06 03:36 197 13 gusting 28 7.2
2019-Dec-06 03:16 196 12 gusting 25 6.7
2019-Dec-06 03:06 207 11 gusting 24 6.7
2019-Dec-06 03:01 201 11 gusting 26 6.7
2019-Dec-06 02:46 194 12 gusting 30 6.1
2019-Dec-06 02:41 194 11 gusting 22 6.1
2019-Dec-06 02:16 202 10 gusting 26 6.1
2019-Dec-06 02:06 181 11 gusting 21 6.1
2019-Dec-06 02:01 201 11 gusting 22 6.1
2019-Dec-06 01:36 177 10 gusting 19 5.6
2019-Dec-06 01:31 204 10 gusting 19 5.6
2019-Dec-06 01:11 180 8 gusting 18 5.6
2019-Dec-06 01:01 187 13 gusting 21 5.6
2019-Dec-06 00:36 198 11 gusting 19 5.6
2019-Dec-06 00:16 197 12 gusting 22 5.6
2019-Dec-06 00:01 179 10 gusting 22 5.0
2019-Dec-05 23:41 194 13 gusting 22 5.0
2019-Dec-05 23:31 193 9 gusting 20 5.0
2019-Dec-05 23:16 205 10 gusting 22 5.6
2019-Dec-05 23:06 194 11 gusting 21 5.6
2019-Dec-05 23:01 198 10 gusting 24 5.6
2019-Dec-05 22:46 199 8 gusting 19 5.6
2019-Dec-05 22:41 192 10 gusting 24 5.6
2019-Dec-05 22:36 196 9 gusting 18 5.6
2019-Dec-05 22:11 192 13 gusting 25 6.7
2019-Dec-05 21:46 198 13 gusting 24 6.7
2019-Dec-05 21:41 200 12 gusting 26 6.7
2019-Dec-05 21:06 205 15 gusting 30 6.7
2019-Dec-05 20:46 190 13 gusting 24 6.7
2019-Dec-05 20:41 218 14 gusting 25 6.7
2019-Dec-05 20:31 211 14 gusting 27 6.7
2019-Dec-05 20:11 206 12 gusting 30 6.7
2019-Dec-05 20:06 210 12 gusting 26 6.7
2019-Dec-05 20:01 201 7 gusting 26 6.7
2019-Dec-05 19:46 205 9 gusting 22 6.7
2019-Dec-05 19:41 204 14 gusting 22 6.7
2019-Dec-05 19:36 210 13 gusting 27 6.7
2019-Dec-05 19:31 200 16 gusting 34 6.7
2019-Dec-05 19:16 195 11 gusting 21 6.7
2019-Dec-05 19:11 203 13 gusting 24 6.7
2019-Dec-05 18:41 188 10 gusting 19 6.7
2019-Dec-05 17:46 219 9 gusting 22 6.1
2019-Dec-05 17:41 192 11 gusting 22 6.1
2019-Dec-05 17:36 204 12 gusting 22 6.1
2019-Dec-05 17:06 199 10 gusting 24 6.7
2019-Dec-05 17:01 199 11 gusting 26 6.7
2019-Dec-05 16:41 191 9 gusting 19 6.1
2019-Dec-05 16:36 192 11 gusting 26 6.1
2019-Dec-05 16:16 207 8 gusting 20 6.7
2019-Dec-05 16:11 207 13 gusting 22 6.7
2019-Dec-05 16:01 190 11 gusting 22 6.7
2019-Dec-05 15:46 214 13 gusting 24 6.7
2019-Dec-05 15:31 196 13 gusting 24 6.7
2019-Dec-05 15:11 206 13 gusting 24 6.7
2019-Dec-05 15:06 199 12 gusting 21 6.7
2019-Dec-05 14:46 193 11 gusting 19 6.7
2019-Dec-05 14:36 197 12 gusting 22 6.7
2019-Dec-05 14:31 196 10 gusting 24 6.1
2019-Dec-05 14:11 197 13 gusting 21 6.1
2019-Dec-05 13:16 204 13 gusting 24 6.1
2019-Dec-05 13:11 199 11 gusting 21 6.1
2019-Dec-05 13:01 200 13 gusting 30 6.1
2019-Dec-05 12:46 208 11 gusting 19 6.1
2019-Dec-05 12:41 185 12 gusting 25 6.1
2019-Dec-05 12:36 207 11 gusting 17 6.1
2019-Dec-05 12:31 197 10 gusting 22 6.1
2019-Dec-05 12:06 200 11 gusting 18 6.1
2019-Dec-05 12:01 192 8 gusting 24 6.7
2019-Dec-05 11:46 212 12 gusting 21 6.7
2019-Dec-05 11:41 200 8 gusting 20 6.1
2019-Dec-05 11:36 221 11 gusting 25 6.1
2019-Dec-05 11:16 193 13 gusting 25 6.1
2019-Dec-05 11:11 212 12 gusting 20 6.1
2019-Dec-05 10:36 208 10 gusting 26 6.7
2019-Dec-05 10:01 201 12 gusting 20 6.7
2019-Dec-05 09:01 193 12 gusting 22 6.7
2019-Dec-05 08:46 182 10 gusting 17 6.7
2019-Dec-05 08:31 206 8 gusting 22 6.1
2019-Dec-05 08:01 216 11 gusting 20 6.1
2019-Dec-05 07:46 212 9 gusting 17 6.1
2019-Dec-05 07:36 199 12 gusting 26 6.1
2019-Dec-05 07:16 207 8 gusting 18 6.1
2019-Dec-05 07:11 200 9 gusting 17 6.1
2019-Dec-05 06:36 204 11 gusting 18 6.1
2019-Dec-05 06:16 205 6 gusting 19 6.1
2019-Dec-05 05:41 214 6 gusting 17 6.1
2019-Dec-05 05:16 211 7 gusting 13 6.1
2019-Dec-05 05:06 190 8 gusting 19 6.1
2019-Dec-05 04:46 187 8 gusting 18 6.1
2019-Dec-05 04:36 198 10 gusting 18 6.1
2019-Dec-05 04:11 209 7 gusting 14 6.1
2019-Dec-05 04:06 196 8 gusting 15 6.1
2019-Dec-05 04:01 214 8 gusting 19 6.1
2019-Dec-05 03:46 192 8 gusting 15 6.1
2019-Dec-05 03:41 202 8 gusting 15 6.1
2019-Dec-05 03:11 221 7 gusting 14 6.1
2019-Dec-05 02:41 186 9 gusting 18 6.1
2019-Dec-05 02:36 191 8 gusting 13 6.1
2019-Dec-05 02:31 203 8 gusting 17 6.1
2019-Dec-05 02:16 185 8 gusting 17 6.1
2019-Dec-05 01:46 202 6 gusting 19 6.1
2019-Dec-05 01:36 204 10 gusting 19 6.1
2019-Dec-05 01:11 205 7 gusting 17 6.1
2019-Dec-05 01:01 207 9 gusting 24 6.1
2019-Dec-05 00:46 205 7 gusting 20 6.1
2019-Dec-04 23:41 198 6 gusting 13 6.1
2019-Dec-04 23:36 224 10 gusting 15 6.1
2019-Dec-04 23:31 210 6 gusting 18 6.1
2019-Dec-04 23:16 204 8 gusting 18 6.1
2019-Dec-04 23:01 198 6 gusting 18 6.1
2019-Dec-04 22:46 202 4 gusting 10 6.1
2019-Dec-04 22:41 186 7 gusting 15 6.1
2019-Dec-04 22:36 205 7 gusting 22 6.1
2019-Dec-04 22:06 192 5 gusting 14 6.1
2019-Dec-04 22:01 186 6 gusting 13 6.1
2019-Dec-04 21:46 188 8 gusting 13 6.1
2019-Dec-04 21:41 201 4 gusting 10 6.1
2019-Dec-04 21:36 191 5 gusting 12 6.1
2019-Dec-04 21:31 207 6 gusting 18 6.1
2019-Dec-04 21:11 206 7 gusting 13 6.1
2019-Dec-04 21:06 201 6 gusting 12 6.1
2019-Dec-04 20:46 196 6 gusting 15 6.1
2019-Dec-04 20:36 189 7 gusting 13 6.1
2019-Dec-04 20:16 206 5 gusting 14 6.1
2019-Dec-04 20:11 192 7 gusting 14 6.1
2019-Dec-04 20:06 225 4 gusting 10 6.1
2019-Dec-04 20:01 226 5 gusting 11 6.1
2019-Dec-04 19:46 200 4 gusting 10 6.1
2019-Dec-04 19:41 207 5 gusting 10 6.1
2019-Dec-04 19:16 197 6 gusting 11 5.6
2019-Dec-04 19:11 197 5 gusting 10 5.6
2019-Dec-04 18:41 203 4 gusting 8 5.6
2019-Dec-04 18:31 201 4 gusting 10 5.6
2019-Dec-04 18:06 189 5 gusting 10 6.1
2019-Dec-04 18:01 195 6 gusting 13 6.1
2019-Dec-04 17:31 210 5 gusting 11 5.6
2019-Dec-04 17:16 194 6 gusting 12 5.6
2019-Dec-04 17:06 181 4 gusting 8 5.6
2019-Dec-04 17:01 193 5 gusting 11 5.6
2019-Dec-04 16:16 175 3 gusting 6 5.6
2019-Dec-04 16:01 198 4 gusting 12 5.6
2019-Dec-04 15:41 180 3 gusting 7 5.6
2019-Dec-04 15:36 187 5 gusting 10 5.6
2019-Dec-04 15:16 201 2 gusting 6 5.6
2019-Dec-04 15:06 194 4 gusting 8 5.6
2019-Dec-04 15:01 193 4 gusting 10 5.6
2019-Dec-04 14:46 188 4 gusting 8 5.6
2019-Dec-04 14:41 188 4 gusting 7 5.6
2019-Dec-04 14:11 215 4 gusting 8 5.6
2019-Dec-04 14:06 195 4 gusting 10 5.6
2019-Dec-04 13:46 209 4 gusting 8 5.6
2019-Dec-04 13:41 232 4 gusting 10 5.6
2019-Dec-04 13:36 199 6 gusting 12 5.6
2019-Dec-04 12:31 216 5 gusting 11 5.6
2019-Dec-04 11:31 208 4 gusting 13 6.1
2019-Dec-04 11:16 213 3 gusting 11 6.1
2019-Dec-04 11:06 215 4 gusting 8 6.1
2019-Dec-04 11:01 240 4 gusting 13 6.1
2019-Dec-04 10:46 226 5 gusting 14 6.1
2019-Dec-04 10:16 195 6 gusting 13 6.1
2019-Dec-04 10:11 215 5 gusting 17 6.1
2019-Dec-04 10:01 188 6 gusting 11 6.1
2019-Dec-04 09:41 185 5 gusting 10 6.1
2019-Dec-04 09:16 210 5 gusting 13 6.1
2019-Dec-04 09:06 203 6 gusting 12 6.1